Home   Weather   Lowell   Past weeks

Flag for USA Past Weather in Lowell, Massachusetts, USA — Yesterday and Last 2 Weeks

Now
41 °F

Sunny.


Feels Like: 37 °F
Forecast: 26 / 41 °F
Wind: 6 mph from Northwest

Location: Hanscom Field

Current Time: Dec 6, 2016 at 1:15:30 pm

Latest Report: Dec 6, 2016 at 11:56 am


Visibility: 10 mi

Pressure: 30.13 "Hg

Humidity: 58%

Dew Point: 27 °F

Location of LowellLocation

Past Weather in Lowell — Graph

°F

Lowell Temperature Yesterday

Maximum temperature yesterday: 34 °F (at 2:56 pm)
Minimum temperature yesterday: 24 °F (at 12:56 am)
Average temperature yesterday: 30 °F

High & Low Weather Summary for the Past Weeks

 TemperatureHumidityPressure
High58 °F (Nov 29, 8:56 pm)100% (Nov 30, 4:03 am)30.41 "Hg (Nov 30, 4:03 am)
Low21 °F (Dec 6, 6:56 am)36% (Dec 4, 2:56 pm)29.45 "Hg (Dec 1, 4:56 am)
Average37 °F71%30.03 "Hg
* Reported Nov 21 11:56 am — Dec 6 11:56 am, Lowell, Weather by CustomWeather, © 2016

Note: Actual official high and low records may vary slightly from our data, if they occured in-between our weather recording intervals... More about our weather records

Advertising

Lowell Weather History for the Previous 24 Hours

Scroll right to see more
 ConditionsComfort  
Time TempWeatherWind HumidityBarometerVisibility
11:56 am
Tue, Dec 6
41 °FSunny.6 mph58%30.13 "Hg10 mi
10:56 am40 °FScattered clouds.5 mph63%30.16 "Hg10 mi
9:56 am35 °FSunny.6 mph82%30.17 "Hg10 mi
8:56 am29 °FSunny.No wind93%30.16 "Hg10 mi
7:56 am23 °FSunny.No wind88%30.17 "Hg10 mi
6:56 am21 °FClear.No wind85%30.15 "Hg10 mi
5:56 am22 °FIce fog.No wind85%30.15 "Hg3 mi
4:56 am24 °FIce fog.No wind88%30.13 "Hg1 mi
4:01 am23 °FIce fog.No wind85%30.08 "Hg1 mi
2:56 am26 °FIce fog.No wind88%30.11 "Hg1 mi
1:56 am31 °FClear.5 mph82%30.09 "Hg10 mi
12:56 am32 °FClear.6 mph82%30.05 "Hg10 mi
11:56 pm
Mon, Dec 5
30 °FClear.8 mph85%30.04 "Hg10 mi
10:56 pm31 °FClear.6 mph85%30.03 "Hg10 mi
9:56 pm33 °FClear.5 mph85%30.02 "Hg10 mi
8:56 pm32 °FClear.7 mph85%30.01 "Hg10 mi
7:56 pm31 °FClear.3 mph89%29.99 "Hg10 mi
6:56 pm32 °FClear.6 mph88%29.99 "Hg10 mi
5:56 pm32 °FClear.5 mph88%29.98 "Hg10 mi
4:56 pm32 °FClear.No wind92%29.97 "Hg10 mi
3:56 pm34 °FScattered clouds.No wind88%29.97 "Hg10 mi
2:56 pm34 °FFog.No wind88%29.97 "Hg1 mi
2:03 pm33 °FFog.No wind88%29.90 "Hg4 mi
1:03 pm32 °FIce fog.3 mph92%29.91 "Hg1 mi
Weather by CustomWeather, © 2016

See weather overviewHow to use our weather pages